sat.trackr.live / text

‹ back to catalog

STARLINK-36576

NORAD 67534 · 2026-014C

PAYLOAD ACTIVE UNKNOWN

§ Identity

Operator
Country
US
Launch date
2026-01-22
Launch site
AFWTR
Launch vehicle
Mass (kg)
RCS (m²)

Purposes: comms

External: N2YO · Heavens-Above · Gunter

§ Orbital elements

Epoch: 2026-09-19T10:30:17.313696Z

Period
93.91 min
Inclination
97.2870°
Eccentricity
0.0001359
Mean motion
15.33459787 rev/d
Perigee alt
464.6 km
Apogee alt
466.4 km
Semi-major
6,843.6 km
B*
4.2304e-4
RAAN
147.7912°
Arg perigee
94.1470°
Mean anomaly
265.9928°
Rev number
3,847

§ Raw data

STARLINK-365761 67534U 26014C   26262.43770039  .00013613  00000+0  42304-3 0  99982 67534  97.2870 147.7912 0001359  94.1470 265.9928 15.33459787 38479

JSON: /api/v1/satellites/67534 · /tle

For live sub-satellite position, see the globe view (requires WebGL).

§ Visibility from observer

Set your observer location to see the next 7 days of passes ≥ 10°. The values pass through the URL so the page stays shareable.

No JS? Fill the form by hand. The geolocation button needs JavaScript.